Regional Weather Roundup
Issued by NWS Glasgow, MT

Home | Current Version | Previous Version | Text Only | Print | Product List | Glossary On
Versions: 1 2 3 4 5 6 7 8 9 10 11 12 13 14 15 16 17 18 19 20 21 22 23 24 25 26 27 28 29 30 31 32 33 34 35 36 37 38 39 40 41 42 43 44 45 46 47 48 49 50
000
ASUS45 KGGW 220815
RWRGGW
HOURLY WEATHER ROUNDUP FOR NORTHEAST MONTANA
NATIONAL WEATHER SERVICE GLASGOW MONTANA
200 AM MDT MON SEP 22 2014

NOTE: "FAIR" INDICATES FEW OR NO CLOUDS BELOW 12,000 FEET WITH NO
SIGNIFICANT WEATHER AND/OR OBSTRUCTIONS TO VISISBILITY.

NORTHEAST MONTANA


CITY           SKY/WX    TMP DP  RH WIND       PRES   REMARKS
GLASGOW        CLEAR     52  35  52 E15       30.02F
PLENTYWOOD       N/A     51  34  52 E3          N/A
WOLF POINT     CLEAR     46  36  68 E7        30.06F
JORDAN           N/A     53  37  54 E8        30.03F
WINNETT          N/A     42  40  92 CALM        N/A
SIDNEY         CLEAR     43  36  75 CALM      30.12S
GLENDIVE       NOT AVBL
MALTA            N/A     57  42  57 N3          N/A
OPHEIM           N/A     48  34  57 S5        29.89F

FORT PECK REPORTS


CITY           SKY/WX    TMP DP  RH WIND       PRES   REMARKS
FORT PECK        N/A     60  42  51 SE10        N/A
THE PINES        N/A     59  39  47 SW3         N/A

SOUTHEAST MONTANA


CITY           SKY/WX    TMP DP  RH WIND       PRES   REMARKS
BILLINGS       CLOUDY    58  41  53 N3        30.02F
MILES CITY     PTCLDY    62  36  37 SE13      30.05F
BAKER          CLEAR     49  36  61 SE7       30.14F
LIVINGSTON     MOCLDY    52  44  74 NW6       30.08F

CENTRAL MONTANA


CITY           SKY/WX    TMP DP  RH WIND       PRES   REMARKS
HAVRE          CLEAR     50  45  83 NE10      29.94F
LEWISTOWN      CLEAR     52  41  66 SE8       30.02F
GREAT FALLS    CLEAR     61  44  53 S9        29.97F
CUT BANK       PTCLDY    46  40  79 NW3       29.97F
HELENA         PTCLDY    56  45  66 CALM      30.03S
BUTTE          MOCLDY    50  40  68 SE5       30.12S
BOZEMAN        MOCLDY    55  46  71 SW6       30.08R

WESTERN MONTANA


CITY           SKY/WX    TMP DP  RH WIND       PRES   REMARKS
MISSOULA       PTCLDY    59  43  55 E5        29.98R
KALISPELL      NOT AVBL

NORTH DAKOTA


CITY           SKY/WX    TMP DP  RH WIND       PRES   REMARKS
WILLISTON      CLEAR     43  36  76 CALM      30.10F
DICKINSON      CLEAR     47  38  71 S10       30.14F
MINOT          CLEAR     56  41  57 S3        30.12F
BISMARCK       CLEAR     46  42  86 NE5       30.19F

SOUTHERN SASKATCHEWAN


CITY           SKY/WX    TMP DP  RH WIND       PRES   REMARKS
REGINA         CLEAR     46  41  81 SE8       30.05F
ESTEVAN        CLEAR     46  41  81 S2        30.10F
SWIFT CURRENT  CLEAR     55  39  54 S20G25    29.96F




USA.gov is the U.S. government's official web portal to all federal, state and local government web resources and services.